Theta_e
329 329 329 331 331 329 329 329 331 332 331 331 331 329 331 332 332 332 335 336 340 343 348 348 345 344 344 345 347 347 346 346 345 342 341 341 341 338 333 337 339 332 329 328
330 329 330 331 328 328 328 331 331 330 329 330 329 330 330 333 334 334 335 337 339 342 349 348 345 344 344 345 345 345 344 345 346 343 341 342 342 339 338 336 333 330 330 329
329 329 330 329 327 329 331 333 331 330 329 329 331 332 333 334 337 338 338 341 341 342 348 347 346 345 345 345 345 345 345 345 345 344 342 342 342 341 338 332 329 327 328 326
328 329 328 328 328 329 329 329 329 327 328 329 331 336 337 337 339 337 337 338 336 335 336 338 338 345 344 345 346 345 345 345 344 345 343 341 343 340 335 327 324 325 324 324
328 328 327 328 331 330 327 327 328 331 332 332 335 335 340 336 339 338 334 333 333 334 335 335 337 335 334 336 332 343 344 345 345 346 341 341 340 334 328 326 327 324 325 322
328 329 329 331 330 328 332 333 331 332 333 339 336 332 338 337 332 329 329 330 330 331 333 333 334 329 331 329 334 343 344 345 344 344 343 342 338 333 330 329 325 325 323 322
330 329 328 329 328 332 332 333 336 334 334 337 332 334 337 330 328 328 328 328 328 328 329 334 334 331 330 332 333 340 342 343 344 343 340 336 333 331 330 327 325 324 323 321
332 330 331 330 328 329 332 336 334 335 338 336 334 335 333 331 330 329 329 330 330 331 332 331 334 333 330 331 334 335 335 335 335 336 333 331 331 329 325 325 324 323 322 319
335 334 332 329 328 330 334 335 335 339 339 337 333 335 333 331 330 330 329 331 332 332 332 334 334 332 327 326 332 334 330 328 328 330 330 330 328 324 324 322 322 321 319 317
336 334 332 330 329 333 332 334 338 337 340 337 330 335 333 333 332 332 332 331 333 333 332 332 334 332 329 332 329 330 330 328 328 328 328 325 323 323 323 322 320 319 317 316
331 334 334 333 338 340 339 335 335 331 334 333 329 335 333 333 334 334 331 333 333 332 329 330 330 329 329 328 328 328 328 328 328 325 323 324 322 323 322 320 318 316 314 313
333 337 339 338 334 333 333 338 339 334 334 334 336 334 330 331 331 334 333 331 331 330 330 329 328 329 330 331 331 330 329 328 325 324 323 322 323 321 318 317 315 314 312 312
344 333 335 340 343 335 335 335 334 338 337 334 336 332 332 334 333 333 331 330 330 330 328 329 329 329 329 331 329 326 325 325 325 324 323 320 318 317 316 316 314 312 311 308
338 341 340 335 335 334 337 335 336 336 338 332 331 330 333 336 334 333 334 330 329 330 329 329 329 329 328 329 328 326 325 325 325 324 321 318 318 316 315 314 313 311 311 310
340 338 333 338 335 333 330 332 330 331 330 332 329 332 332 332 334 333 333 330 331 330 330 331 330 329 326 328 326 325 325 325 324 322 319 317 317 314 312 311 311 310 309 309
339 340 337 335 330 334 336 336 331 330 331 329 331 330 333 333 332 334 333 331 331 331 331 330 328 326 326 326 323 324 325 324 322 319 317 316 313 311 311 311 310 310 310 310
338 339 342 335 332 337 337 334 331 331 330 331 331 331 333 333 334 332 330 328 327 331 330 327 326 324 326 324 324 324 324 322 319 317 316 314 312 311 311 311 311 311 310 311
337 338 339 336 335 334 333 332 333 333 333 333 331 331 330 334 334 332 331 329 328 329 326 325 322 322 326 324 325 324 322 319 318 317 315 313 312 311 310 311 311 311 311 311
338 342 337 337 336 332 335 339 340 339 334 334 334 333 332 333 334 333 331 329 328 326 325 322 320 321 325 325 325 322 320 318 317 316 314 312 312 311 311 311 311 312 312 312
335 338 338 335 332 331 339 336 334 336 332 335 333 333 333 332 334 334 331 328 326 325 323 320 320 322 326 325 323 320 319 317 317 315 313 311 311 312 312 311 311 311 312 312
344 344 340 337 335 338 334 331 329 329 342 335 333 334 335 335 333 332 328 327 325 323 321 319 321 326 325 324 321 320 318 318 316 314 312 311 311 311 311 312 312 312 312 312
341 342 339 339 338 340 332 331 335 341 338 329 333 334 334 331 330 328 327 327 325 322 320 320 322 326 323 323 321 319 317 317 315 313 312 310 311 310 310 312 311 311 312 312
336 338 337 334 330 332 328 337 335 334 333 333 334 332 330 329 328 327 327 327 324 322 320 320 322 323 323 321 320 318 317 316 314 313 311 310 311 311 310 311 312 311 310 311
331 334 331 333 327 327 327 327 327 331 332 333 333 330 328 327 326 325 326 326 323 321 320 321 322 323 323 320 319 316 318 316 314 314 312 311 309 311 311 310 311 310 311 312
330 331 331 330 328 327 327 329 330 333 331 330 329 328 327 325 325 324 326 324 321 319 320 321 321 322 322 319 317 316 317 315 315 314 312 310 309 308 311 310 307 310 307 307
328 332 328 329 331 329 328 328 330 329 329 329 330 327 326 325 324 323 322 320 318 318 320 322 321 322 321 319 317 316 316 314 313 314 312 310 309 309 311 311 310 306 306 306
Wind_Speed
15 13 12 3 10 9 8 8 13 11 6 5 12 16 3 4 8 7 7 7 5 1 27 27 13 11 13 13 10 8 8 6 6 8 9 10 7 7 16 14 11 5 5 8
16 11 11 3 6 11 8 16 13 10 15 9 13 13 9 10 7 5 8 3 6 1 22 18 2 13 13 13 10 9 6 7 7 8 8 5 8 8 8 8 6 10 6 6
12 11 1 6 9 8 11 8 12 15 14 16 13 13 3 6 8 4 2 9 6 5 19 17 27 15 18 17 14 9 7 5 7 6 5 9 9 10 10 3 6 2 5 10
9 8 4 7 9 4 5 9 13 15 12 12 1 10 13 9 24 10 6 6 4 2 13 19 2 27 16 21 24 14 9 7 8 7 5 5 4 10 8 9 9 13 13 15
3 5 1 8 9 6 13 15 14 12 12 14 11 9 7 14 12 17 7 3 4 6 15 12 22 33 43 21 31 14 12 8 5 6 5 4 8 8 10 10 11 14 10 10
14 6 1 12 4 3 12 20 17 14 7 3 14 8 9 5 3 5 11 8 7 7 12 6 17 22 15 16 24 18 14 10 6 5 6 6 6 7 8 10 13 11 14 17
6 8 2 5 8 2 8 11 7 3 5 5 9 8 8 9 11 11 9 10 10 11 12 14 10 16 22 25 10 12 12 7 8 7 8 7 5 6 11 8 6 14 15 12
5 10 6 4 4 8 9 9 8 11 9 10 16 8 8 11 10 8 8 11 11 15 16 12 22 25 43 51 7 4 2 2 1 4 4 2 4 6 11 15 12 15 14 16
6 10 11 2 5 1 5 8 15 8 2 1 6 14 14 5 6 8 14 15 15 13 8 18 18 20 17 19 20 1 6 8 8 4 1 4 1 7 12 14 16 17 19 18
8 4 4 8 1 12 6 10 5 6 3 8 12 7 5 11 15 15 15 14 14 13 18 15 14 17 18 5 12 6 8 14 15 8 5 7 9 11 13 14 17 20 17 17
7 4 0 3 7 6 22 1 6 3 9 8 8 6 18 10 10 10 9 13 12 14 14 14 16 19 24 22 19 18 19 18 17 13 12 9 11 11 13 16 17 15 19 22
4 4 8 3 12 7 14 4 7 3 6 8 10 4 11 7 7 8 10 12 13 11 11 11 14 20 21 25 27 28 28 19 17 13 10 11 11 15 17 16 14 16 20 19
9 2 6 15 14 8 4 1 2 11 3 6 7 4 3 12 10 15 7 11 14 21 13 13 18 21 22 21 23 23 22 18 19 18 14 17 18 18 17 15 18 20 20 19
2 6 9 10 3 5 7 17 16 7 3 8 10 13 13 15 13 17 21 12 15 12 8 16 14 18 20 20 22 21 19 20 17 14 18 19 18 18 18 18 19 22 18 17
2 6 11 18 18 12 9 17 9 10 10 7 10 14 14 13 3 9 4 16 20 18 17 15 13 17 22 20 22 18 17 17 16 16 17 18 20 20 21 19 17 18 18 15
3 5 8 9 15 9 17 22 15 7 5 8 13 11 12 13 20 24 22 20 19 17 15 15 16 21 19 20 19 17 14 12 13 17 16 20 20 16 15 17 19 17 17 15
1 5 8 10 9 2 4 9 8 9 10 11 11 13 15 14 13 17 17 17 13 12 14 15 15 18 16 19 17 15 11 11 15 15 17 18 14 18 16 16 17 16 16 14
3 5 6 9 13 14 7 7 11 9 7 10 12 8 5 11 14 14 11 9 7 9 14 13 18 17 17 18 16 11 15 16 15 15 17 15 16 15 15 15 16 14 14 12
7 7 7 8 12 11 9 14 13 14 9 12 9 12 18 9 13 10 4 5 4 9 12 16 16 16 17 16 13 17 17 16 14 16 13 15 16 13 12 15 14 15 15 12
6 5 7 9 10 14 5 2 9 13 3 9 8 6 6 10 6 7 9 9 9 12 15 16 16 15 16 13 12 14 14 12 14 13 12 15 12 14 13 12 13 12 11 11
3 6 4 10 2 8 14 3 7 8 3 6 8 9 10 8 6 5 6 8 12 14 16 16 16 13 13 12 11 12 13 14 12 11 11 14 13 12 14 13 10 11 10 10
7 5 4 10 0 4 4 5 5 4 5 3 4 7 6 4 3 6 7 9 13 14 16 16 15 11 12 11 13 12 11 12 13 10 11 12 9 11 12 11 11 13 13 9
3 2 4 2 4 3 4 8 5 4 5 5 5 6 3 1 8 8 9 10 13 14 13 15 14 12 11 11 12 11 11 13 11 9 10 10 10 9 14 11 10 12 14 15
7 8 2 6 6 4 5 1 1 2 1 6 5 2 2 7 5 9 9 10 12 13 13 14 13 12 9 10 11 11 12 11 9 7 9 6 10 10 11 13 13 12 12 13
4 4 2 3 7 7 4 5 7 7 5 0 3 4 6 5 8 10 9 12 12 13 12 12 12 8 8 10 10 10 12 11 10 11 12 8 8 10 5 8 11 9 10 10
4 6 4 3 8 4 4 4 7 3 3 4 5 4 4 4 7 11 10 10 11 11 12 12 10 9 10 11 10 9 11 10 10 12 9 11 8 9 7 3 3 8 8 8
Wind_Direction
208 254 259 352 311 339 307 307 28 11 18 331 337 298 291 323 24 340 359 308 304 177 104 158 203 141 122 135 148 163 169 181 202 238 248 267 223 270 219 242 230 279 298 274
242 234 288 181 349 326 301 342 25 342 338 318 302 303 318 65 48 16 343 303 274 191 117 174 49 145 154 159 156 163 185 193 212 237 256 286 299 305 286 282 260 269 241 271
271 272 246 321 313 269 40 320 349 321 318 296 300 259 191 90 118 109 29 11 0 12 158 153 202 127 197 160 158 171 180 197 213 238 286 279 294 303 301 6 313 58 276 300
264 92 339 278 272 28 66 15 317 306 311 302 237 53 83 48 15 345 132 138 98 62 264 92 101 214 183 184 152 152 163 185 211 206 241 277 287 282 300 330 334 334 327 310
259 43 273 254 78 12 333 324 296 283 285 283 26 319 84 73 76 253 121 101 174 220 97 125 205 61 358 77 336 156 146 178 184 195 225 254 265 300 335 341 334 323 328 336
267 36 244 40 6 295 353 311 299 287 318 76 263 272 120 133 83 24 22 15 354 304 120 202 107 120 154 163 194 149 161 166 185 214 245 258 290 310 313 306 308 328 342 337
183 204 185 352 307 83 289 335 317 320 213 155 247 55 350 53 32 22 23 358 341 323 309 126 126 155 188 216 71 139 144 171 201 224 244 249 259 299 286 310 357 339 320 316
330 135 42 137 345 338 9 357 1 331 357 329 15 52 360 347 51 3 359 351 355 3 25 27 21 45 43 348 57 26 249 198 239 231 258 8 327 320 337 335 346 323 322 330
163 227 194 41 323 28 55 354 17 318 142 262 246 112 208 354 20 3 6 359 2 7 355 71 63 66 96 201 263 105 16 358 347 328 302 283 244 11 350 338 332 331 332 324
341 159 339 117 250 53 356 358 68 287 21 328 351 57 349 15 20 24 17 355 10 20 41 22 102 144 188 239 5 54 26 10 7 324 13 62 20 5 342 336 338 335 335 336
319 338 298 55 75 46 295 258 306 342 19 333 327 41 3 340 3 41 6 42 16 5 4 20 42 33 43 39 29 16 14 358 44 46 34 28 12 357 358 345 339 338 334 330
31 348 323 129 112 10 5 12 360 2 3 329 306 91 9 35 10 57 22 33 35 29 23 352 36 60 38 33 30 23 22 48 39 30 19 3 17 3 355 346 346 340 337 339
355 234 270 122 24 272 227 276 225 264 220 321 293 351 336 58 26 9 350 28 32 49 32 17 19 23 22 29 25 19 16 14 9 4 3 36 21 11 14 14 350 346 339 334
355 286 283 300 250 172 196 194 212 225 267 308 329 338 35 29 40 39 316 38 54 69 30 32 23 14 7 21 17 12 23 24 15 3 36 27 28 29 18 359 347 342 343 332
252 257 272 6 315 300 334 334 334 316 320 337 342 348 11 349 39 194 7 41 42 22 21 22 11 13 6 10 11 14 26 34 10 10 17 25 29 18 3 354 356 356 352 355
151 282 293 307 302 21 20 294 290 323 24 338 1 333 41 27 54 35 45 45 32 19 8 11 8 6 358 12 7 11 34 25 11 18 16 33 17 2 13 4 5 4 4 1
230 309 306 288 315 108 261 258 356 6 5 20 346 358 44 346 78 61 50 30 1 11 9 1 4 356 20 7 10 11 28 20 35 14 33 17 355 22 13 1 358 4 5 1
295 283 291 283 293 290 38 23 56 16 14 349 342 27 11 78 80 78 57 41 312 358 358 360 356 358 24 9 8 11 34 36 25 32 22 0 23 18 2 3 14 16 5 5
214 274 260 271 279 297 83 33 47 354 346 36 14 19 18 83 95 67 93 124 22 12 356 10 351 4 32 13 6 44 34 31 23 37 13 18 22 12 4 4 3 5 1 18
247 236 283 279 288 283 84 96 152 226 278 36 27 26 359 353 32 65 48 41 17 14 16 7 2 8 37 15 33 39 28 23 48 26 12 33 19 6 15 15 15 7 15 26
11 334 299 290 284 59 337 51 247 270 67 3 7 34 34 54 57 62 44 17 26 16 19 6 11 38 43 16 56 41 31 60 40 24 29 36 15 6 5 2 1 9 18 29
173 132 194 246 124 45 225 349 22 39 327 339 26 53 82 70 67 45 14 18 25 12 10 9 9 53 47 28 21 36 25 52 39 23 30 30 12 10 1 5 8 14 14 25
255 18 324 32 33 49 3 74 86 48 319 28 46 66 49 44 37 9 16 26 21 17 2 17 6 26 53 41 29 25 29 37 28 18 31 24 13 12 1 14 12 27 26 35
299 148 331 355 356 332 353 15 329 138 4 58 82 87 42 35 10 19 19 27 6 14 354 20 5 18 47 49 29 26 44 35 11 5 3 14 11 359 1 19 25 32 21 26
26 127 232 255 262 270 301 57 69 100 92 50 97 58 56 32 24 21 24 18 9 1 352 26 3 26 35 62 42 26 46 28 0 360 11 44 9 346 7 36 31 38 33 37
311 27 324 303 55 360 346 68 129 161 178 221 154 141 98 19 28 24 22 10 360 346 10 18 9 20 30 47 45 31 45 23 7 6 36 21 350 347 31 59 34 35 38 37